When you browse on this site, cookies collect data to enhance your experience and personalize the content and advertising you see.
Visit our Privacy Policy to learn more. By continuing to use the site, you agree to this use of cookies and data.
  • Em Portugal
  • Lista de países
  • Para 7 dias
  • Temperatura da água
  • Mapas de satélite
  • Mapa do tempo
  • Widgets de tempo
  • user-avatar
    Iniciar Sessão

    Previsão horária em Czarnoszyce

    Hoje, 18 Fevereiro, Segunda-feira

    Tempo Temperatura Precipitação Vento Pressão Humidade
    00:00 +4°C° 0 mm 1 m/s 754 mmHg 97%
    01:00 +4°C° 0 mm 1 m/s 753 mmHg 96%
    02:00 +4°C° 0 mm 1 m/s 753 mmHg 96%
    03:00 +3°C° 0 mm 1 m/s 753 mmHg 97%
    04:00 +3°C° 0 mm 1 m/s 753 mmHg 97%
    05:00 +3°C° 0 mm 1 m/s 753 mmHg 97%
    06:00 +2°C° 0 mm 2 m/s 753 mmHg 97%
    07:00 +2°C° 0 mm 2 m/s 752 mmHg 98%
    08:00 +3°C° 0 mm 2 m/s 752 mmHg 94%
    09:00 +3°C° 0 mm 3 m/s 752 mmHg 91%
    10:00 +4°C° 0 mm 3 m/s 752 mmHg 88%
    11:00 +5°C° 0 mm 3 m/s 752 mmHg 82%
    12:00 +7°C° 0 mm 4 m/s 752 mmHg 77%
    13:00 +8°C° 0 mm 4 m/s 752 mmHg 71%
    14:00 +8°C° 0 mm 3 m/s 751 mmHg 71%
    15:00 +8°C° 0 mm 3 m/s 751 mmHg 70%
    16:00 +8°C° 0 mm 3 m/s 751 mmHg 70%
    17:00 +7°C° 0 mm 3 m/s 750 mmHg 74%
    18:00 +5°C° 0 mm 3 m/s 750 mmHg 78%
    19:00 +5°C° 0 mm 2 m/s 750 mmHg 82%
    20:00 +4°C° 0 mm 2 m/s 749 mmHg 82%
    21:00 +4°C° 0 mm 2 m/s 749 mmHg 83%
    22:00 +4°C° 0 mm 2 m/s 749 mmHg 84%
    23:00 +3°C° 0 mm 2 m/s 748 mmHg 84%

    Amanhã, 19 Fevereiro, Terça-feira

    Tempo Temperatura Precipitação Vento Pressão Humidade
    00:00 +3°C° 0 mm 2 m/s 748 mmHg 85%
    01:00 +3°C° 0 mm 2 m/s 748 mmHg 85%
    02:00 +3°C° 0 mm 2 m/s 747 mmHg 85%
    03:00 +1°C° 0 mm 3 m/s 747 mmHg 85%
    04:00 +1°C° 0 mm 3 m/s 746 mmHg 85%
    05:00 +1°C° 0 mm 3 m/s 746 mmHg 86%
    06:00 +1°C° 0 mm 3 m/s 745 mmHg 86%
    07:00 0°C° 0 mm 4 m/s 745 mmHg 87%
    08:00 +1°C° 0 mm 4 m/s 745 mmHg 84%
    09:00 +2°C° 0 mm 5 m/s 745 mmHg 80%
    10:00 +3°C° 0 mm 5 m/s 744 mmHg 77%
    11:00 +5°C° 0 mm 5 m/s 744 mmHg 75%
    12:00 +7°C° 0 mm 5 m/s 745 mmHg 73%
    13:00 +8°C° 0 mm 6 m/s 745 mmHg 70%
    14:00 +7°C° 0.3 mm 5 m/s 744 mmHg 75%
    15:00 +6°C° 0.3 mm 5 m/s 744 mmHg 80%
    16:00 +6°C° 0.3 mm 5 m/s 744 mmHg 85%
    17:00 +5°C° 0.1 mm 4 m/s 744 mmHg 85%
    18:00 +5°C° 0.1 mm 4 m/s 745 mmHg 84%
    19:00 +5°C° 0.1 mm 4 m/s 745 mmHg 84%
    20:00 +4°C° 0 mm 4 m/s 745 mmHg 83%
    21:00 +4°C° 0 mm 4 m/s 745 mmHg 83%
    22:00 +3°C° 0 mm 5 m/s 745 mmHg 83%
    23:00 +3°C° 0 mm 5 m/s 745 mmHg 83%

    Depois de amanhã, 20 Fevereiro, Quarta-feira

    Tempo Temperatura Precipitação Vento Pressão Humidade
    00:00 +2°C° 0 mm 5 m/s 746 mmHg 83%
    01:00 +2°C° 0 mm 5 m/s 746 mmHg 83%
    02:00 +2°C° 0 mm 5 m/s 746 mmHg 84%
    03:00 +2°C° 0 mm 5 m/s 746 mmHg 85%
    04:00 +2°C° 0 mm 5 m/s 746 mmHg 86%
    05:00 +2°C° 0.1 mm 5 m/s 746 mmHg 85%
    06:00 +2°C° 0.1 mm 5 m/s 746 mmHg 84%
    07:00 +2°C° 0.1 mm 5 m/s 747 mmHg 83%
    08:00 +2°C° 0.1 mm 5 m/s 747 mmHg 82%
    09:00 +2°C° 0.1 mm 5 m/s 747 mmHg 80%
    10:00 +3°C° 0.1 mm 5 m/s 748 mmHg 79%
    11:00 +3°C° 0.1 mm 5 m/s 748 mmHg 80%
    12:00 +3°C° 0.1 mm 5 m/s 748 mmHg 80%
    13:00 +3°C° 0.1 mm 5 m/s 749 mmHg 80%
    14:00 +3°C° 0.1 mm 5 m/s 749 mmHg 80%
    15:00 +5°C° 0.1 mm 5 m/s 749 mmHg 79%
    16:00 +5°C° 0.1 mm 4 m/s 749 mmHg 79%
    17:00 +4°C° 0 mm 4 m/s 750 mmHg 81%
    18:00 +4°C° 0 mm 4 m/s 750 mmHg 84%
    19:00 +4°C° 0 mm 3 m/s 750 mmHg 86%
    20:00 +4°C° 0.1 mm 3 m/s 750 mmHg 87%
    21:00 +4°C° 0.1 mm 3 m/s 750 mmHg 88%
    22:00 +4°C° 0.1 mm 4 m/s 750 mmHg 89%
    23:00 +4°C° 0.2 mm 4 m/s 750 mmHg 90%

    21 Fevereiro, Quinta-feira

    Tempo Temperatura Precipitação Vento Pressão Humidade
    00:00 +4°C° 0.2 mm 4 m/s 750 mmHg 90%
    01:00 +4°C° 0.2 mm 4 m/s 750 mmHg 91%
    02:00 +4°C° 0.2 mm 4 m/s 749 mmHg 91%
    03:00 +4°C° 0.2 mm 4 m/s 749 mmHg 90%
    04:00 +4°C° 0.2 mm 4 m/s 749 mmHg 90%
    05:00 +4°C° 0.7 mm 4 m/s 749 mmHg 90%
    06:00 +4°C° 0.7 mm 4 m/s 749 mmHg 91%
    07:00 +4°C° 0.7 mm 4 m/s 749 mmHg 91%
    08:00 +5°C° 0.4 mm 4 m/s 749 mmHg 91%
    09:00 +5°C° 0.4 mm 4 m/s 749 mmHg 91%
    10:00 +5°C° 0.4 mm 4 m/s 749 mmHg 91%
    11:00 +5°C° 0.4 mm 4 m/s 750 mmHg 90%
    12:00 +6°C° 0.4 mm 4 m/s 750 mmHg 89%
    13:00 +6°C° 0.4 mm 4 m/s 750 mmHg 88%
    14:00 +6°C° 0 mm 4 m/s 751 mmHg 88%
    15:00 +6°C° 0 mm 4 m/s 751 mmHg 88%
    16:00 +6°C° 0 mm 4 m/s 752 mmHg 88%
    17:00 +5°C° 0 mm 3 m/s 752 mmHg 90%
    18:00 +5°C° 0 mm 3 m/s 753 mmHg 91%
    19:00 +5°C° 0 mm 2 m/s 754 mmHg 93%
    20:00 +5°C° 0 mm 2 m/s 755 mmHg 91%
    21:00 +4°C° 0 mm 2 m/s 755 mmHg 89%
    22:00 +3°C° 0 mm 2 m/s 756 mmHg 87%
    23:00 +2°C° 0 mm 2 m/s 757 mmHg 87%

    22 Fevereiro, Sexta-feira

    Tempo Temperatura Precipitação Vento Pressão Humidade
    00:00 +2°C° 0 mm 2 m/s 758 mmHg 86%
    01:00 +1°C° 0 mm 2 m/s 758 mmHg 86%
    02:00 -1°C° 0 mm 2 m/s 759 mmHg 84%
    03:00 -1°C° 0 mm 2 m/s 759 mmHg 83%
    04:00 -1°C° 0 mm 2 m/s 760 mmHg 81%
    05:00 -1°C° 0 mm 2 m/s 761 mmHg 78%
    06:00 -2°C° 0 mm 2 m/s 761 mmHg 75%
    07:00 0°C° 0 mm 1 m/s 762 mmHg 72%
    08:00 -1°C° 0 mm 2 m/s 763 mmHg 65%
    09:00 +1°C° 0 mm 2 m/s 764 mmHg 57%
    10:00 +2°C° 0 mm 2 m/s 764 mmHg 50%
    11:00 +3°C° 0 mm 2 m/s 765 mmHg 48%
    12:00 +4°C° 0 mm 1 m/s 765 mmHg 45%
    13:00 +5°C° 0 mm 1 m/s 765 mmHg 42%
    14:00 +5°C° 0 mm 1 m/s 765 mmHg 43%
    15:00 +5°C° 0 mm 1 m/s 766 mmHg 44%
    16:00 +5°C° 0 mm 1 m/s 766 mmHg 45%
    17:00 +4°C° 0 mm 1 m/s 766 mmHg 49%
    18:00 +3°C° 0 mm 1 m/s 766 mmHg 52%
    19:00 +2°C° 0 mm 1 m/s 766 mmHg 55%
    20:00 +1°C° 0 mm 2 m/s 766 mmHg 56%
    21:00 +1°C° 0 mm 2 m/s 767 mmHg 58%
    22:00 -1°C° 0 mm 2 m/s 767 mmHg 59%
    23:00 -1°C° 0 mm 2 m/s 767 mmHg 60%

    23 Fevereiro, Sábado

    Tempo Temperatura Precipitação Vento Pressão Humidade
    00:00 -1°C° 0 mm 2 m/s 767 mmHg 61%
    01:00 -1°C° 0 mm 2 m/s 767 mmHg 62%
    02:00 -1°C° 0 mm 2 m/s 766 mmHg 64%
    03:00 -1°C° 0 mm 3 m/s 766 mmHg 66%
    04:00 -1°C° 0 mm 3 m/s 766 mmHg 68%
    05:00 -1°C° 0 mm 3 m/s 766 mmHg 74%
    06:00 0°C° 0 mm 3 m/s 765 mmHg 81%
    07:00 0°C° 0 mm 3 m/s 765 mmHg 88%
    08:00 +1°C° 0 mm 3 m/s 765 mmHg 87%
    09:00 +2°C° 0 mm 3 m/s 765 mmHg 86%
    10:00 +4°C° 0 mm 4 m/s 765 mmHg 85%
    11:00 +5°C° 0 mm 4 m/s 765 mmHg 84%
    12:00 +6°C° 0 mm 4 m/s 764 mmHg 83%
    13:00 +7°C° 0 mm 4 m/s 764 mmHg 82%
    14:00 +7°C° 0 mm 4 m/s 764 mmHg 82%
    15:00 +7°C° 0 mm 4 m/s 763 mmHg 82%
    16:00 +7°C° 0 mm 4 m/s 763 mmHg 83%
    17:00 +6°C° 0 mm 4 m/s 763 mmHg 86%
    18:00 +6°C° 0 mm 4 m/s 763 mmHg 89%
    19:00 +5°C° 0 mm 4 m/s 763 mmHg 92%
    20:00 +5°C° 0 mm 4 m/s 762 mmHg 92%
    21:00 +5°C° 0 mm 4 m/s 762 mmHg 92%
    22:00 +4°C° 0 mm 4 m/s 762 mmHg 93%
    23:00 +4°C° 0 mm 4 m/s 762 mmHg 93%
    Mostrar mais